Location: Unspecified
(0.0000°N, 0.0000°E)
Time: 19:42:49
(UTC-06:00)

CZ-3 Stage 3 - Visible Passes

Search period start: 22 January 2019 00:00
Search period end: 01 February 2019 00:00
Orbit: 421 x 34772 km, 30.4° (Epoch: 21 January)

Date Brightness Start Highest point End Pass type
(mag) Time Alt. Az. Time Alt. Az. Time Alt. Az.
23 Jan 9.5 08:26:46 10° WNW 10:10:21 24° NW 13:33:02 10° WNW visible
24 Jan 6.5 04:09:53 10° WNW 13:24:57 67° SW 13:47:10 10° SE visible
26 Jan 9.5 08:16:18 10° WNW 10:00:42 24° NW 13:25:16 10° WNW visible
27 Jan 6.5 04:00:05 10° WNW 13:14:18 66° SW 13:37:09 10° SE visible
29 Jan 9.4 08:05:50 10° WNW 09:50:57 25° NW 13:17:17 10° WNW visible
30 Jan 6.6 03:50:16 10° WNW 13:03:38 65° SW 13:27:07 10° SE visible
